Location: Dortmund
(51.5019°N, 7.6520°E)
Time: 04:32:17
(UTC+01:00)

ISS - Pass Details

Date: 11 January 2018
Orbit: 401 x 406 km, 51.6° (Epoch: 17 January)

Event Time Altitude Azimuth Distance (km) Brightness Sun altitude
Exits shadow 07:15:07 15° 260° (W) 1,218 -1.9 -11.3°
Maximum altitude 07:17:04 24° 213° (SSW) 880 -2.2 -11.0°
Drops below altitude 10° 07:19:48 10° 157° (SSE) 1,461 -0.3 -10.6°
Sets 07:22:06 0° 143° (SE) 2,319 1.1 -10.3°
